GW5308 Weather Reports


time (UTC)temp
F
wind
direction
speed
knots
gust
knots
rain 1hr
in
rain 24hr
in
rain mn
in
humidity
%
barometer
mb
20260904194020 94 0 0.0 0.9 0.00 0.00 0.00 73 1012.7
20260904193522 94 0 0.0 1.7 0.00 0.00 0.00 73 1012.7
20260904193039 94 0 0.0 1.7 0.00 0.00 0.00 72 1012.8
20260904192520 94 194 0.0 1.7 0.00 0.00 0.00 71 1012.8
20260904192021 94 244 0.9 1.7 0.00 0.00 0.00 69 1012.9
20260904191545 95 0 0.0 0.0 0.00 0.00 0.00 70 1013.0
20260904191021 95 0 0.0 0.0 0.00 0.00 0.00 72 1013.0
20260904190521 95 0 0.0 0.0 0.00 0.00 0.00 72 1013.1
20260904190047 95 0 0.0 0.0 0.00 0.00 0.00 69 1013.1
20260904185519 95 0 0.0 0.9 0.00 0.00 0.00 70 1013.3
20260904185022 95 0 0.0 1.7 0.00 0.00 0.00 68 1013.4
20260904184549 95 241 0.0 1.7 0.00 0.00 0.00 69 1013.5
20260904184021 95 0 0.0 1.7 0.00 0.00 0.00 74 1013.5
20260904183521 95 245 0.0 1.7 0.00 0.00 0.00 70 1013.6
20260904183045 95 211 0.0 1.7 0.00 0.00 0.00 70 1013.7
20260904182520 95 0 0.0 1.7 0.00 0.00 0.00 71 1013.8
20260904182028 94 0 0.0 1.7 0.00 0.00 0.00 74 1013.8
20260904181540 94 240 0.0 1.7 0.00 0.00 0.00 73 1013.8
20260904181018 94 0 0.0 1.7 0.00 0.00 0.00 74 1013.8
20260904180518 94 190 0.9 1.7 0.00 0.00 0.00 74 1013.9
20260904180043 93 257 0.0 0.9 0.00 0.00 0.00 79 1014.0
20260904175519 92 0 0.0 0.9 0.00 0.00 0.00 83 1014.2
20260904175018 91 0 0.0 0.9 0.00 0.00 0.00 80 1014.2
20260904174543 91 0 0.0 0.0 0.00 0.00 0.00 81 1014.3
20260904174020 91 0 0.0 0.9 0.00 0.00 0.00 80 1014.4
20260904173521 92 0 0.0 0.9 0.00 0.00 0.00 78 1014.4
20260904173042 92 0 0.0 0.9 0.00 0.00 0.00 79 1014.4
20260904172518 92 0 0.0 0.9 0.00 0.00 0.00 78 1014.4
20260904172019 92 236 0.0 0.9 0.00 0.00 0.00 80 1014.4
20260904171543 91 0 0.0 0.0 0.00 0.00 0.00 79 1014.5
20260904171018 91 0 0.0 0.9 0.00 0.00 0.00 78 1014.5
20260904170519 90 0 0.0 0.9 0.00 0.00 0.00 79 1014.6
20260904170044 91 0 0.0 0.0 0.00 0.00 0.00 80 1014.7
20260904165521 92 0 0.0 0.0 0.00 0.00 0.00 78 1014.7
20260904165021 92 0 0.0 3.5 0.00 0.00 0.00 76 1014.9
20260904164538 93 0 0.0 3.5 0.00 0.00 0.00 75 1014.8
20260904164021 93 250 0.0 3.5 0.00 0.00 0.00 73 1014.9
20260904163522 93 217 0.0 3.5 0.00 0.00 0.00 73 1015.0
20260904163037 93 0 0.0 2.6 0.00 0.00 0.00 74 1015.1
20260904162523 91 0 0.0 2.6 0.00 0.00 0.00 77 1015.1
20260904162020 90 0 0.0 2.6 0.00 0.00 0.00 79 1014.9
20260904161539 91 0 0.0 0.9 0.00 0.00 0.00 78 1015.0
20260904161017 91 0 0.0 2.6 0.00 0.00 0.00 78 1015.1
20260904160521 92 0 0.0 2.6 0.00 0.00 0.00 78 1015.2
20260904160038 92 0 0.0 2.6 0.00 0.00 0.00 77 1015.2
20260904155527 92 218 0.0 1.7 0.00 0.05 0.00 79 1015.2
20260904155020 90 0 0.0 2.6 0.00 0.05 0.00 79 1015.2
20260904154544 91 0 0.0 2.6 0.00 0.05 0.00 79 1015.3
20260904154022 91 0 0.0 0.9 0.00 0.05 0.00 80 1015.4
20260904153520 91 0 0.0 0.9 0.00 0.05 0.00 78 1015.4
20260904153050 91 0 0.0 1.7 0.00 0.05 0.00 82 1015.4
20260904152523 89 0 0.0 1.7 0.00 0.05 0.00 83 1015.4
20260904152019 89 228 0.0 2.6 0.00 0.05 0.00 83 1015.4
20260904151539 89 0 0.0 2.6 0.00 0.05 0.00 84 1015.3
20260904151016 90 273 0.0 2.6 0.00 0.05 0.00 83 1015.4
20260904150517 90 258 0.0 1.7 0.00 0.05 0.00 84 1015.3
20260904150037 89 0 0.0 1.7 0.00 0.05 0.00 83 1015.4
20260904145520 89 0 0.0 0.0 0.00 0.55 0.00 84 1015.2
20260904145020 89 0 0.0 2.6 0.00 0.55 0.00 83 1015.1
20260904144542 88 0 0.0 2.6 0.00 0.55 0.00 85 1015.1
20260904144024 88 0 0.0 2.6 0.00 0.55 0.00 85 1015.3
20260904143519 88 248 0.0 1.7 0.00 0.55 0.00 84 1015.3
20260904143040 88 0 0.0 1.7 0.00 0.55 0.00 86 1015.4
20260904142521 87 70 0.0 0.9 0.00 0.55 0.00 86 1015.3
20260904142023 87 0 0.0 0.9 0.00 0.55 0.00 87 1015.1
20260904141540 87 0 0.0 0.9 0.00 0.55 0.00 87 1015.1
20260904141019 87 240 0.0 0.9 0.00 0.55 0.00 87 1014.9
20260904140517 87 0 0.0 0.9 0.00 0.55 0.00 88 1014.6
20260904140051 87 228 0.0 0.9 0.00 0.55 0.00 87 1014.6
20260904135521 87 0 0.0 0.0 0.00 0.55 0.00 88 1014.6
20260904135021 86 0 0.0 0.0 0.00 0.55 0.00 89 1014.7
20260904134540 85 0 0.0 0.0 0.00 0.55 0.00 92 1014.8
20260904134019 85 0 0.0 0.0 0.00 0.55 0.00 92 1014.7
20260904133521 84 0 0.0 0.0 0.00 0.55 0.00 92 1014.8
20260904133039 84 0 0.0 0.0 0.00 0.55 0.00 95 1014.7
20260904132520 83 0 0.0 0.0 0.00 0.55 0.00 97 1014.7
20260904132026 83 0 0.0 0.0 0.00 0.55 0.00 99 1014.7
20260904131540 81 0 0.0 0.9 0.00 0.55 0.00 100 1014.8
20260904131020 80 0 0.0 0.9 0.00 0.55 0.00 100 1014.7
20260904130522 80 0 0.0 0.9 0.00 0.55 0.00 100 1014.8
20260904130042 79 0 0.0 0.0 0.00 0.55 0.00 100 1014.7
20260904125516 79 0 0.0 0.0 0.00 0.55 0.00 100 1014.9
20260904125021 79 0 0.0 0.9 0.00 0.55 0.00 100 1014.9
20260904124535 78 0 0.0 0.9 0.00 0.55 0.00 100 1014.9
20260904124019 78 301 0.0 0.0 0.00 0.55 0.00 100 1015.0
20260904123519 78 0 0.0 0.0 0.00 0.55 0.00 100 1014.8
20260904123040 77 0 0.0 0.0 0.00 0.55 0.00 100 1014.8
20260904122522 77 0 0.0 0.0 0.00 0.55 0.00 100 1014.7
20260904122023 77 0 0.0 0.0 0.00 0.55 0.00 100 1014.7
20260904121541 76 0 0.0 0.0 0.00 0.55 0.00 100 1014.6
20260904121023 76 0 0.0 0.0 0.00 0.55 0.00 100 1014.5
20260904120520 75 0 0.0 0.0 0.00 0.55 0.00 100 1014.6
20260904120044 75 0 0.0 0.0 0.00 0.55 0.00 100 1014.5
20260904115522 75 0 0.0 0.0 0.00 0.55 0.00 100 1014.4
20260904115021 75 0 0.0 0.0 0.00 0.55 0.00 100 1014.4
20260904114542 75 0 0.0 0.0 0.00 0.55 0.00 100 1014.4
20260904114020 75 0 0.0 0.0 0.00 0.55 0.00 100 1014.3
20260904113522 75 0 0.0 0.0 0.00 0.55 0.00 100 1014.3
20260904113038 75 0 0.0 0.0 0.00 0.55 0.00 100 1014.3
20260904112520 75 0 0.0 0.0 0.00 0.55 0.00 100 1014.2
20260904112021 75 0 0.0 0.0 0.00 0.55 0.00 100 1014.2
20260904111540 75 0 0.0 0.0 0.00 0.55 0.00 100 1014.0
20260904111019 75 0 0.0 0.0 0.00 0.55 0.00 100 1014.0
20260904110520 75 0 0.0 0.0 0.00 0.55 0.00 100 1013.9
20260904110043 75 0 0.0 0.0 0.00 0.55 0.00 100 1013.8
20260904105521 75 0 0.0 0.0 0.00 0.55 0.00 100 1013.8
20260904105020 75 0 0.0 0.0 0.00 0.55 0.00 100 1013.6
20260904104536 75 0 0.0 0.0 0.00 0.55 0.00 100 1013.6
20260904104023 75 0 0.0 0.0 0.00 0.55 0.00 100 1013.6
20260904103520 75 0 0.0 0.0 0.00 0.55 0.00 100 1013.6
20260904103036 75 0 0.0 0.0 0.00 0.55 0.00 100 1013.5
20260904102520 75 0 0.0 0.0 0.00 0.55 0.00 100 1013.5
20260904102020 75 0 0.0 0.0 0.00 0.55 0.00 100 1013.5
20260904101536 75 0 0.0 0.0 0.00 0.55 0.00 100 1013.4
20260904101020 75 0 0.0 0.0 0.00 0.55 0.00 100 1013.3
20260904100519 75 0 0.0 0.0 0.00 0.55 0.00 100 1013.4
20260904100042 75 0 0.0 0.0 0.00 0.55 0.00 100 1013.3
20260904095519 75 0 0.0 0.0 0.00 0.55 0.00 100 1013.3
20260904095018 75 0 0.0 0.0 0.00 0.55 0.00 100 1013.3
20260904094544 75 0 0.0 0.0 0.00 0.55 0.00 100 1013.3
20260904094020 75 0 0.0 0.0 0.00 0.55 0.00 100 1013.2
20260904093521 75 0 0.0 0.0 0.00 0.55 0.00 100 1013.2
20260904093045 75 0 0.0 0.0 0.00 0.55 0.00 100 1013.2
20260904092519 75 0 0.0 0.0 0.00 0.55 0.00 100 1013.2
20260904092018 75 0 0.0 0.0 0.00 0.55 0.00 100 1013.1
20260904091538 76 0 0.0 0.0 0.00 0.55 0.00 100 1013.2
20260904091023 76 0 0.0 0.0 0.00 0.55 0.00 100 1013.1
20260904090519 76 0 0.0 0.0 0.00 0.55 0.00 100 1013.1
20260904090038 76 0 0.0 0.0 0.00 0.55 0.00 100 1013.1
20260904085520 75 0 0.0 0.0 0.00 0.55 0.00 100 1013.1
20260904085020 75 0 0.0 0.0 0.00 0.55 0.00 100 1013.1
20260904084538 76 0 0.0 0.0 0.00 0.55 0.00 100 1013.2
20260904084018 76 0 0.0 0.0 0.00 0.55 0.00 100 1013.2
20260904083519 76 0 0.0 0.0 0.00 0.55 0.00 100 1013.2
20260904083039 76 0 0.0 0.0 0.00 0.55 0.00 100 1013.3
20260904082518 76 0 0.0 0.0 0.00 0.55 0.00 100 1013.3
20260904082018 76 0 0.0 0.0 0.00 0.55 0.00 100 1013.2
20260904081538 76 0 0.0 0.0 0.00 0.55 0.00 100 1013.3
20260904081021 76 0 0.0 0.0 0.00 0.55 0.00 100 1013.3
20260904080522 76 0 0.0 0.0 0.00 0.55 0.00 100 1013.1
20260904080035 76 0 0.0 0.0 0.00 0.55 0.00 100 1013.1
20260904075525 76 0 0.0 0.0 0.00 0.55 0.00 100 1013.1
20260904075020 76 0 0.0 0.0 0.00 0.55 0.00 100 1013.0
20260904074538 76 0 0.0 0.0 0.00 0.55 0.00 100 1013.0
20260904074022 76 0 0.0 0.0 0.00 0.55 0.00 100 1012.8
20260904073521 76 0 0.0 0.0 0.00 0.55 0.00 100 1012.9
20260904073040 76 0 0.0 0.0 0.00 0.55 0.00 100 1012.9
20260904072521 76 0 0.0 0.0 0.00 0.55 0.00 100 1013.0
20260904072019 76 0 0.0 0.0 0.00 0.55 0.00 100 1013.0
20260904071539 76 0 0.0 0.0 0.00 0.55 0.00 100 1012.9
20260904071020 76 0 0.0 0.0 0.00 0.55 0.00 100 1013.0
20260904070521 76 0 0.0 0.0 0.00 0.55 0.00 100 1012.9
20260904070045 76 0 0.0 0.0 0.00 0.55 0.00 100 1012.9
20260904065523 76 0 0.0 0.0 0.00 0.55 0.00 100 1013.0
20260904065019 76 0 0.0 0.0 0.00 0.55 0.00 100 1013.0
20260904064542 77 0 0.0 0.0 0.00 0.55 0.00 100 1013.0
20260904064018 77 0 0.0 0.0 0.00 0.55 0.00 100 1013.0
20260904063521 77 0 0.0 0.0 0.00 0.55 0.00 100 1013.1
20260904063043 77 0 0.0 0.0 0.00 0.55 0.00 100 1013.1
20260904062522 77 0 0.0 0.0 0.00 0.55 0.00 100 1013.2
20260904062019 77 0 0.0 0.0 0.00 0.55 0.00 100 1013.3
20260904061544 77 0 0.0 0.0 0.00 0.55 0.00 100 1013.3
20260904061025 77 0 0.0 0.0 0.00 0.55 0.00 100 1013.5
20260904060521 77 0 0.0 0.0 0.00 0.55 0.00 100 1013.5
20260904060100 77 0 0.0 0.0 0.00 0.55 0.00 100 1013.5
20260904055520 77 0 0.0 0.0 0.00 0.55 0.00 100 1013.6
20260904055020 77 0 0.0 0.0 0.00 0.55 0.00 100 1013.7
20260904054542 77 0 0.0 0.0 0.00 0.55 0.00 100 1013.8
20260904054024 77 0 0.0 0.0 0.00 0.55 0.00 100 1013.8
20260904053520 77 0 0.0 0.0 0.00 0.55 0.00 100 1013.8
20260904053041 77 0 0.0 0.0 0.00 0.55 0.00 100 1013.9
20260904052519 77 0 0.0 0.0 0.00 0.55 0.00 100 1013.9
20260904052021 77 0 0.0 0.0 0.00 0.55 0.00 100 1013.9
20260904051541 77 0 0.0 0.0 0.00 0.55 0.00 100 1014.0
20260904051023 77 0 0.0 0.0 0.00 0.55 0.00 100 1014.0
20260904050520 77 0 0.0 0.0 0.00 0.55 0.00 100 1014.0
20260904050047 77 0 0.0 0.0 0.00 0.55 0.00 100 1014.1
20260904045520 77 0 0.0 0.0 0.00 0.55 0.00 100 1014.2
20260904045021 77 0 0.0 0.0 0.00 0.55 0.00 100 1014.1
20260904044606 77 0 0.0 0.0 0.00 0.55 0.00 100 1014.1
20260904044020 77 0 0.0 0.0 0.00 0.55 0.00 100 1014.1
20260904043521 78 0 0.0 0.0 0.00 0.55 0.00 100 1014.1
20260904043037 78 0 0.0 0.0 0.00 0.55 0.00 100 1014.1
20260904042520 78 0 0.0 0.0 0.00 0.55 0.00 100 1014.1
20260904042018 78 0 0.0 0.0 0.00 0.55 0.00 100 1014.0
20260904041541 78 0 0.0 0.0 0.00 0.55 0.00 100 1014.0
20260904041020 78 0 0.0 0.0 0.00 0.55 0.00 100 1013.9
20260904040521 78 0 0.0 0.0 0.00 0.55 0.00 100 1014.0
20260904040043 78 0 0.0 0.0 0.00 0.55 0.00 100 1014.0
20260904035520 78 0 0.0 0.0 0.00 0.55 0.55 100 1013.9
20260904035023 78 0 0.0 0.0 0.00 0.55 0.55 100 1014.0
20260904034544 78 0 0.0 0.0 0.00 0.55 0.55 100 1014.0
20260904034019 78 0 0.0 0.0 0.00 0.55 0.55 100 1014.0
20260904033519 78 0 0.0 0.0 0.00 0.55 0.55 100 1014.1
20260904033041 78 0 0.0 0.0 0.00 0.55 0.55 100 1014.1
20260904032519 78 0 0.0 0.0 0.00 0.55 0.55 100 1013.9
20260904032021 78 0 0.0 0.0 0.00 0.55 0.55 100 1013.9
20260904031536 78 0 0.0 0.0 0.00 0.55 0.55 100 1014.0
20260904031019 78 0 0.0 0.0 0.00 0.55 0.55 100 1014.0
20260904030519 78 0 0.0 0.0 0.00 0.55 0.55 100 1014.0
20260904030038 78 0 0.0 0.0 0.00 0.55 0.55 100 1013.9
20260904025521 78 0 0.0 0.0 0.00 0.55 0.55 100 1013.9
20260904025019 78 0 0.0 0.0 0.00 0.55 0.55 100 1013.9
20260904024541 78 0 0.0 0.0 0.00 0.55 0.55 100 1013.9
20260904024020 79 0 0.0 0.0 0.00 0.55 0.55 100 1013.8
20260904023519 79 0 0.0 0.0 0.00 0.55 0.55 100 1013.9
20260904023040 79 0 0.0 0.0 0.00 0.55 0.55 100 1013.7
20260904022521 79 0 0.0 0.0 0.00 0.55 0.55 100 1013.7
20260904022020 79 0 0.0 0.0 0.00 0.55 0.55 100 1013.7
20260904021548 79 0 0.0 0.0 0.00 0.55 0.55 100 1013.7
20260904021021 79 0 0.0 0.0 0.00 0.55 0.55 100 1013.7
20260904020523 79 0 0.0 0.0 0.00 0.55 0.55 100 1013.7
20260904020042 79 0 0.0 0.0 0.00 0.55 0.55 99 1013.7
20260904015521 79 0 0.0 0.0 0.00 0.55 0.55 99 1013.7
20260904015024 79 0 0.0 0.0 0.00 0.55 0.55 99 1013.8
20260904014545 79 0 0.0 0.0 0.00 0.55 0.55 99 1013.8
20260904014019 79 0 0.0 0.0 0.00 0.55 0.55 99 1013.8
20260904013518 79 0 0.0 0.0 0.00 0.55 0.55 99 1013.7
20260904013059 79 0 0.0 0.0 0.00 0.55 0.55 99 1013.6
20260904012521 80 0 0.0 0.0 0.00 0.55 0.55 98 1013.6
20260904012021 80 0 0.0 0.0 0.00 0.55 0.55 99 1013.5
20260904011542 80 0 0.0 0.0 0.00 0.55 0.55 98 1013.5
20260904011020 80 0 0.0 0.0 0.00 0.55 0.55 98 1013.6
20260904010519 80 0 0.0 0.0 0.00 0.55 0.55 98 1013.6
20260904010040 80 0 0.0 0.0 0.00 0.55 0.55 98 1013.6
20260904005519 80 0 0.0 0.0 0.00 0.55 0.55 97 1013.7
20260904005020 80 0 0.0 0.9 0.00 0.55 0.55 97 1013.7
20260904004539 80 0 0.0 0.9 0.00 0.55 0.55 97 1013.7
20260904004021 80 0 0.0 0.9 0.00 0.55 0.55 97 1013.8
20260904003520 80 0 0.0 1.7 0.00 0.55 0.55 97 1013.8
20260904003035 80 0 0.0 1.7 0.00 0.55 0.55 97 1013.8
20260904002522 80 0 0.0 0.0 0.00 0.55 0.55 96 1013.7
20260904002021 80 0 0.0 0.0 0.00 0.55 0.55 96 1013.6
20260904001554 81 0 0.0 0.0 0.00 0.55 0.55 96 1013.4
20260904001022 81 0 0.0 0.0 0.00 0.55 0.55 95 1013.2
20260904000522 81 0 0.0 0.0 0.00 0.55 0.55 95 1013.2
20260904000040 81 0 0.0 0.0 0.00 0.55 0.55 94 1013.2
20260903235519 81 0 0.0 0.0 0.00 0.55 0.55 94 1013.2
20260903235016 82 0 0.0 0.0 0.00 0.55 0.55 94 1013.1
20260903234539 82 0 0.0 0.9 0.00 0.55 0.55 93 1013.0
20260903234021 82 0 0.0 0.9 0.00 0.55 0.55 93 1013.0
20260903233523 83 0 0.0 0.9 0.00 0.55 0.55 92 1013.2
20260903233042 83 0 0.0 0.9 0.00 0.55 0.55 92 1013.1
20260903232524 83 0 0.0 0.0 0.00 0.55 0.55 92 1013.0
20260903232021 83 0 0.0 0.0 0.00 0.55 0.55 92 1012.9
20260903231540 84 0 0.0 0.0 0.00 0.55 0.55 90 1012.9
20260903231020 84 0 0.0 0.0 0.00 0.55 0.55 90 1012.9
20260903230523 84 0 0.0 0.9 0.00 0.55 0.55 91 1012.9
20260903230040 84 0 0.0 0.9 0.00 0.55 0.55 90 1012.9
20260903225521 85 0 0.0 0.0 0.00 0.55 0.55 89 1012.8
20260903225020 85 0 0.0 0.0 0.00 0.55 0.55 89 1012.7
20260903224541 85 0 0.0 0.9 0.00 0.55 0.55 88 1012.5
20260903224020 85 0 0.0 1.7 0.00 0.55 0.55 87 1012.5
20260903223523 85 0 0.0 1.7 0.00 0.55 0.55 87 1012.4
20260903223042 86 0 0.0 0.0 0.00 0.55 0.55 87 1012.5
20260903222521 86 0 0.0 0.9 0.00 0.55 0.55 87 1012.4
20260903222025 86 0 0.0 0.9 0.00 0.55 0.55 87 1012.5
20260903221535 86 0 0.0 0.9 0.00 0.55 0.55 86 1012.4
20260903221020 86 0 0.0 0.9 0.00 0.55 0.55 86 1012.5
20260903220519 86 271 0.0 0.0 0.00 0.55 0.55 86 1012.7
20260903220040 86 0 0.0 0.0 0.00 0.55 0.55 88 1012.5
20260903215521 86 0 0.0 0.9 0.00 0.55 0.55 87 1012.5
20260903215020 86 0 0.0 0.9 0.00 0.55 0.55 86 1012.4
20260903214541 86 0 0.0 0.9 0.00 0.55 0.55 88 1012.4
20260903214021 86 0 0.0 0.9 0.00 0.55 0.55 87 1012.3
20260903213521 86 0 0.0 0.9 0.00 0.55 0.55 86 1012.2
20260903213049 86 0 0.0 0.9 0.00 0.55 0.55 86 1012.3
20260903212526 86 40 0.0 1.7 0.00 0.55 0.55 87 1012.2
20260903212021 86 0 0.0 1.7 0.00 0.55 0.55 86 1012.1
20260903211541 86 0 0.0 1.7 0.00 0.55 0.55 87 1012.1
20260903211019 87 0 0.0 1.7 0.00 0.55 0.55 86 1012.0
20260903210520 87 0 0.0 1.7 0.00 0.55 0.55 86 1011.9
20260903210041 87 0 0.0 1.7 0.00 0.55 0.55 85 1012.0
20260903205523 87 0 0.0 1.7 0.00 0.55 0.55 85 1012.0
20260903205020 87 0 0.0 1.7 0.00 0.55 0.55 83 1012.0
20260903204541 88 0 0.0 0.9 0.00 0.55 0.55 85 1012.0
20260903204017 88 0 0.0 1.7 0.00 0.55 0.55 84 1012.1
20260903203520 88 0 0.0 1.7 0.00 0.55 0.55 85 1012.2
20260903203044 88 76 0.0 0.9 0.00 0.55 0.55 83 1012.2
20260903202520 88 0 0.0 0.9 0.00 0.55 0.55 82 1012.3
20260903202022 88 0 0.0 2.6 0.00 0.55 0.55 84 1012.5
20260903201535 88 0 0.0 2.6 0.00 0.55 0.55 83 1012.5
20260903201021 88 352 0.0 1.7 0.00 0.55 0.55 84 1012.6
20260903200520 88 0 0.0 1.7 0.00 0.55 0.55 86 1012.7
20260903200039 88 5 0.0 1.7 0.00 0.55 0.55 84 1012.7
20260903195519 88 0 0.0 2.6 0.00 0.55 0.55 87 1012.8
20260903195019 88 0 0.0 2.6 0.00 0.55 0.55 85 1012.9
20260903194538 88 4 0.0 1.7 0.00 0.55 0.55 83 1013.0